Regional Weather Roundup
Issued by NWS

Home | Current Version | Previous Version | Graphics & Text | Print | Product List | Glossary On
Versions: 1 2 3 4 5 6 7 8 9 10 11 12 13 14 15 16 17 18 19 20 21 22 23 24 25 26 27 28 29 30 31 32 33 34 35 36 37 38 39 40 41 42 43 44 45 46 47 48 49 50
000
ASUS43 KBIS 281710
RWRND

NORTH DAKOTA REGIONAL WEATHER ROUNDUP
NATIONAL WEATHER SERVICE BISMARCK ND
1200 PM CDT FRI AUG 28 2015

NOTE: "FAIR" INDICATES FEW OR NO CLOUDS BELOW 12,000 FEET WITH NO
SIGNIFICANT WEATHER AND/OR OBSTRUCTIONS TO VISIBILITY.


NDZ001>003-009>011-017-281800-
NORTHWEST NORTH DAKOTA

CITY           SKY/WX    TMP DP  RH WIND       PRES   REMARKS
WILLISTON      SUNNY     75  61  61 S6        29.92R
MINOT          SUNNY     79  61  53 W7        29.87R
MINOT AFB      SUNNY     80  62  52 NW9       29.85S
$$

NDZ018>021-031>035-040>046-281800-
SOUTHWEST NORTH DAKOTA

CITY           SKY/WX    TMP DP  RH WIND       PRES   REMARKS
BISMARCK       SUNNY     79  64  60 SW7       29.91S
DICKINSON      SUNNY     79  55  43 NW8       29.94S
GARRISON         N/A     75  63  66 W6        29.89S
HETTINGER ARPT SUNNY     78  54  43 W9        29.99S
$$

NDZ004>008-012>016-024-026-027-054-281800-
NORTHEAST NORTH DAKOTA

CITY           SKY/WX    TMP DP  RH WIND       PRES   REMARKS
GRAND FORKS    CLOUDY    75  66  73 S9        29.89F
GRND FRKS AFB  CLOUDY    74  66  76 SE10      29.89S
DEVILS LAKE    MOSUNNY   75  63  64 S9        29.85S
$$

NDZ022-023-025-028>030-036>039-047>053-281800-
SOUTHEAST NORTH DAKOTA

CITY           SKY/WX    TMP DP  RH WIND       PRES   REMARKS
FARGO          SUNNY     76  66  71 S14       29.93S
JAMESTOWN      SUNNY     78  68  71 S12       29.91S
$$




USA.gov is the U.S. government's official web portal to all federal, state and local government web resources and services.